Probability
42 65 58 39 42 45 26 26 19 13 13 16 19 16 26 35 3 23 26 3 0 0 0 0 0 0 0 0 0 0 0 0 0 0 0 0 0 0
55 52 48 29 32 39 29 32 32 23 23 10 23 10 10 3 3 16 13 0 0 0 0 0 0 0 0 0 0 0 0 0 0 0 0 0 0 0
45 35 45 39 26 19 16 16 26 23 16 13 3 3 16 13 13 16 10 10 3 0 0 0 0 0 0 0 0 0 0 0 0 0 0 0 0 0
26 29 23 26 26 23 19 16 16 29 13 10 6 10 16 16 16 16 6 3 3 0 0 0 0 0 0 0 0 0 0 0 0 0 0 0 0 0
23 23 16 23 26 19 13 13 16 10 19 16 10 13 6 0 6 3 6 10 0 0 0 0 0 0 0 0 0 0 0 0 0 0 0 0 0 0
26 19 16 13 19 23 13 16 13 13 16 16 13 10 6 6 10 10 3 3 0 0 0 0 0 0 0 0 0 0 0 0 0 0 0 0 0 0
19 13 13 6 3 3 3 10 13 13 13 16 13 6 6 6 6 3 0 3 3 0 0 0 0 0 0 0 0 0 0 0 0 0 0 0 0 0
10 10 6 0 3 0 0 0 3 6 10 13 10 10 6 6 3 0 0 0 0 0 0 0 0 0 0 0 0 0 0 0 0 0 0 0 0 0
10 10 0 0 0 0 0 0 0 0 0 6 6 3 3 3 3 3 3 3 3 0 0 0 0 0 0 0 0 0 0 0 0 0 0 0 0 0
10 10 6 0 0 0 0 0 3 3 0 0 6 6 3 3 3 3 3 3 3 3 3 3 0 0 0 0 0 0 0 0 0 0 0 0 0 0
6 6 6 3 0 0 0 0 0 0 0 0 0 0 0 0 3 3 3 3 0 0 0 0 0 0 0 0 0 0 0 0 0 0 0 0 0 0
10 0 0 0 0 0 0 0 0 0 0 0 0 0 0 0 0 3 3 3 0 0 0 0 0 0 0 0 0 0 0 0 0 0 0 0 0 0
3 0 0 0 0 0 0 0 0 0 0 3 3 3 3 3 0 0 0 0 0 0 0 0 0 0 0 0 0 0 0 0 0 0 0 0 0 0
3 0 0 0 0 0 0 0 0 0 0 0 3 3 0 0 0 0 0 0 0 0 0 0 0 0 0 0 0 0 0 0 0 0 0 0 0 0
3 0 0 0 0 0 0 0 0 0 0 0 3 0 0 0 0 0 0 0 0 0 0 0 0 0 0 0 0 0 0 0 0 0 0 0 0 0
0 0 0 0 0 0 0 0 0 0 0 0 0 0 0 0 0 0 0 0 0 0 0 0 0 0 0 0 0 0 0 0 0 0 0 0 0 0
0 0 0 0 0 0 0 0 0 0 0 0 0 0 0 0 0 0 0 0 0 0 0 0 0 0 0 0 0 0 0 0 0 0 0 0 0 0
0 0 0 0 0 0 0 0 0 0 0 0 0 0 0 0 0 0 0 0 0 0 0 0 0 0 0 0 0 0 0 0 0 0 0 0 0 0
0 0 0 0 0 0 0 0 0 0 0 0 0 0 0 0 0 0 0 0 0 0 0 0 0 0 0 0 0 0 0 0 0 0 0 0 0 0
0 0 0 0 0 0 0 0 0 0 0 0 0 0 0 0 0 0 0 0 0 0 0 0 0 0 0 0 0 0 0 0 0 0 0 0 0 0
0 0 0 0 0 0 0 0 0 0 0 0 0 0 0 0 0 0 0 0 0 0 0 0 0 0 0 0 0 0 0 0 0 0 0 0 0 0
0 0 0 0 0 0 0 0 0 0 0 0 0 0 0 0 0 0 0 0 0 0 0 0 0 0 0 0 0 0 0 0 0 0 0 0 0 0
0 0 0 0 0 0 0 0 0 0 0 0 0 0 0 0 0 0 0 0 0 0 0 0 0 0 0 0 0 0 0 0 0 0 0 0 0 0
Height
5883 5883 5883 5883 5883 5882 5882 5882 5881 5880 5880 5879 5878 5877 5875 5874 5873 5872 5871 5870 5868 5867 5866 5865 5863 5862 5860 5859 5857 5855 5854 5852 5850 5848 5846 5844 5842 5840
5878 5878 5878 5878 5878 5877 5877 5876 5876 5875 5874 5873 5872 5871 5870 5869 5867 5866 5865 5863 5862 5861 5859 5858 5856 5855 5853 5851 5849 5847 5845 5843 5840 5838 5836 5834 5832 5830
5874 5874 5873 5873 5872 5872 5871 5871 5870 5869 5868 5867 5866 5865 5864 5863 5861 5860 5858 5857 5855 5854 5852 5850 5849 5847 5845 5843 5841 5838 5836 5833 5831 5828 5826 5824 5821 5819
5869 5868 5868 5867 5866 5866 5865 5865 5864 5863 5862 5861 5860 5858 5857 5856 5854 5853 5852 5850 5848 5846 5845 5843 5841 5839 5837 5834 5832 5829 5826 5824 5821 5818 5815 5813 5810 5807
5863 5863 5862 5861 5861 5860 5859 5859 5857 5856 5855 5854 5853 5852 5851 5850 5848 5846 5844 5843 5841 5839 5837 5835 5832 5830 5828 5825 5822 5819 5816 5813 5810 5807 5804 5801 5798 5795
5858 5857 5856 5856 5855 5854 5853 5852 5851 5850 5849 5848 5847 5845 5844 5843 5841 5839 5837 5835 5833 5831 5828 5826 5823 5821 5818 5815 5812 5809 5806 5802 5799 5795 5792 5789 5785 5782
5852 5852 5851 5850 5849 5848 5847 5846 5845 5844 5842 5841 5839 5838 5837 5835 5833 5831 5829 5827 5825 5822 5820 5817 5815 5812 5808 5805 5802 5799 5795 5792 5788 5784 5781 5777 5773 5769
5847 5846 5845 5844 5843 5841 5840 5839 5838 5837 5835 5833 5832 5830 5829 5827 5825 5823 5821 5819 5817 5814 5811 5808 5805 5802 5799 5795 5792 5788 5784 5780 5777 5773 5769 5765 5761 5757
5841 5840 5839 5838 5836 5835 5834 5832 5831 5829 5828 5826 5824 5823 5821 5819 5817 5815 5812 5810 5808 5805 5802 5799 5795 5792 5789 5785 5781 5777 5774 5770 5765 5761 5757 5753 5748 5744
5836 5835 5833 5832 5830 5829 5827 5825 5824 5822 5820 5818 5816 5814 5813 5811 5808 5806 5804 5801 5799 5796 5793 5790 5786 5782 5778 5775 5771 5767 5763 5758 5754 5749 5745 5741 5736 5732
5830 5829 5827 5826 5824 5822 5820 5818 5817 5815 5812 5810 5808 5806 5804 5802 5800 5798 5796 5793 5790 5787 5784 5780 5776 5772 5769 5765 5760 5756 5751 5747 5743 5738 5734 5729 5724 5720
5824 5823 5821 5819 5818 5816 5814 5812 5810 5807 5805 5803 5801 5798 5796 5794 5792 5790 5787 5784 5781 5778 5774 5770 5766 5762 5758 5754 5750 5745 5741 5736 5732 5727 5723 5718 5713 5708
5819 5817 5815 5813 5811 5809 5807 5805 5803 5800 5798 5795 5793 5790 5788 5786 5783 5780 5778 5775 5772 5768 5764 5760 5756 5752 5747 5743 5739 5734 5730 5725 5721 5716 5712 5708 5703 5698
5812 5810 5808 5806 5804 5802 5800 5798 5795 5793 5790 5788 5785 5782 5780 5777 5774 5771 5768 5765 5762 5758 5754 5750 5746 5742 5737 5733 5729 5724 5720 5715 5711 5706 5702 5697 5693 5688
5805 5803 5801 5799 5797 5795 5793 5790 5788 5785 5783 5780 5777 5775 5772 5768 5765 5763 5759 5756 5752 5748 5744 5740 5736 5732 5728 5724 5719 5715 5711 5706 5702 5697 5693 5688 5683 5678
5798 5796 5794 5792 5790 5787 5785 5783 5780 5778 5775 5772 5769 5767 5763 5760 5757 5754 5750 5747 5743 5739 5735 5731 5727 5723 5718 5714 5710 5706 5702 5698 5693 5688 5683 5678 5674 5668
5791 5789 5786 5784 5782 5780 5777 5775 5773 5770 5767 5764 5761 5758 5755 5751 5748 5744 5741 5737 5733 5729 5726 5722 5718 5714 5710 5706 5702 5698 5693 5689 5685 5680 5675 5670 5665 5660
5783 5781 5779 5777 5774 5772 5770 5767 5764 5762 5759 5756 5753 5749 5746 5743 5739 5735 5732 5728 5724 5720 5717 5713 5709 5705 5702 5698 5694 5690 5686 5681 5677 5672 5668 5663 5658 5653
5775 5773 5771 5769 5766 5764 5762 5759 5756 5753 5750 5747 5744 5741 5737 5734 5730 5727 5723 5719 5716 5712 5709 5705 5701 5698 5694 5691 5687 5683 5678 5674 5670 5665 5661 5656 5651 5646
5768 5765 5763 5761 5758 5756 5753 5751 5748 5745 5742 5739 5736 5732 5729 5725 5722 5718 5715 5712 5708 5705 5701 5698 5694 5690 5687 5684 5680 5676 5671 5667 5663 5659 5654 5649 5645 5640
5759 5757 5755 5753 5750 5748 5745 5742 5740 5737 5733 5730 5727 5724 5721 5717 5714 5711 5707 5704 5701 5697 5694 5690 5687 5684 5680 5676 5673 5669 5665 5661 5656 5652 5648 5644 5639 5634
5751 5749 5747 5744 5742 5740 5737 5734 5731 5728 5725 5722 5719 5716 5713 5709 5706 5703 5700 5696 5693 5690 5687 5683 5680 5677 5673 5670 5666 5662 5659 5655 5650 5646 5641 5637 5632 5627
5743 5741 5738 5736 5734 5731 5728 5726 5723 5720 5717 5714 5711 5708 5705 5701 5698 5695 5692 5689 5686 5683 5679 5676 5673 5670 5667 5663 5659 5656 5652 5648 5644 5640 5636 5631 5627 5622
Wind_Speed
18 19 20 20 20 20 20 21 21 22 22 21 22 22 22 22 23 24 24 24 25 25 25 26 27 28 28 29 30 31 32 33 33 34 34 35 35 36
19 19 20 21 22 22 23 23 23 24 24 23 23 24 23 24 25 26 26 26 26 27 27 28 29 30 31 32 33 34 35 35 35 36 37 38 39 39
20 20 21 21 23 24 24 24 25 25 25 25 25 24 24 26 26 27 27 28 28 28 28 28 29 30 32 34 35 36 37 38 39 39 40 40 41 41
21 21 22 22 22 23 23 24 25 26 26 26 25 25 26 26 27 28 29 28 29 29 30 31 32 33 34 35 36 37 38 39 40 42 42 42 42 43
21 22 22 23 23 23 23 24 25 25 26 25 26 27 27 27 29 29 30 29 29 30 31 33 34 35 36 37 38 38 40 40 41 41 42 42 43 44
20 22 22 23 23 23 24 24 24 25 25 26 27 28 29 29 30 30 29 30 30 31 32 34 35 36 38 39 39 39 39 40 40 41 41 42 43 44
21 22 23 23 22 23 24 24 25 25 26 27 28 29 30 30 30 30 31 31 32 33 34 35 36 38 38 39 39 38 39 40 41 42 43 43 44 44
22 22 22 22 23 24 24 25 25 26 27 28 28 28 29 30 30 31 31 32 33 34 35 36 37 38 38 39 38 39 39 40 41 42 43 43 44 44
21 22 22 23 24 24 24 25 26 27 28 28 28 29 30 30 31 31 32 33 33 34 35 35 37 38 38 38 39 39 40 41 42 43 43 43 43 44
22 23 23 24 24 24 24 25 26 27 28 28 29 30 30 30 30 31 31 32 32 33 35 36 37 38 39 39 39 40 41 42 42 42 42 43 43 43
23 24 24 25 24 25 25 25 26 26 27 28 29 29 29 30 30 30 32 32 33 34 35 36 36 37 39 39 40 40 41 41 41 41 41 41 41 41
23 24 24 24 24 25 26 26 27 27 28 28 29 28 28 29 30 32 32 33 34 35 36 38 39 39 39 39 39 40 40 40 39 40 40 40 39 40
25 25 25 25 26 27 27 27 27 27 28 28 28 28 29 30 31 32 33 33 34 36 36 37 38 38 38 38 38 38 38 38 38 38 38 37 38 38
26 26 26 26 27 27 27 27 27 28 28 28 29 29 29 30 31 32 33 34 35 35 36 36 36 36 37 37 37 37 37 37 36 36 36 37 36 37
26 26 26 26 27 27 27 27 27 28 28 29 29 29 30 31 32 33 33 34 34 34 35 34 35 35 36 36 35 35 35 35 35 35 35 35 36 36
26 27 27 27 27 26 26 26 27 28 29 29 29 30 30 31 32 33 33 34 34 34 34 34 34 34 33 33 33 33 33 33 34 34 34 34 34 34
28 28 28 27 26 26 26 27 28 30 30 30 31 31 32 32 33 33 33 33 33 33 33 32 32 32 32 31 31 31 32 32 32 32 32 33 33 34
28 28 27 27 27 27 27 28 29 30 30 31 32 32 32 32 32 32 32 32 32 32 31 31 30 30 30 29 30 30 30 31 31 31 31 31 32 32
29 29 29 28 28 28 28 29 29 30 31 31 32 32 32 32 31 31 31 30 30 29 29 29 28 29 29 29 29 29 30 29 29 29 29 29 30 31
29 29 29 28 28 28 29 30 30 31 31 31 31 31 31 31 31 30 29 29 28 28 28 28 28 28 28 28 28 28 28 28 28 28 28 28 29 30
29 29 28 28 28 29 30 30 31 31 31 31 31 31 30 30 29 29 29 28 28 28 28 27 27 27 27 27 27 27 27 27 27 26 27 27 28 29
28 28 27 27 29 29 29 30 30 30 30 30 31 30 29 29 29 28 28 28 28 27 27 27 27 26 26 26 26 26 26 27 26 26 26 27 28 28
28 28 28 28 29 29 29 29 29 29 30 30 29 29 29 29 28 27 27 27 27 27 27 26 26 26 26 25 25 26 26 26 26 26 26 27 28 28
Wind_Direction
268 268 267 268 267 269 270 273 274 274 275 276 277 278 277 276 277 279 280 282 283 282 281 282 283 284 284 285 284 284 284 284 283 283 284 286 286 283
266 268 269 270 271 270 270 273 275 275 275 276 278 279 279 279 280 281 281 281 283 284 284 284 286 285 284 286 286 286 285 285 285 284 284 284 284 284
266 268 270 271 273 270 270 273 274 275 275 275 278 280 280 282 285 284 283 283 283 284 284 285 286 287 287 287 287 288 287 287 287 287 288 287 287 285
269 271 273 272 272 271 272 273 274 275 275 277 279 281 283 285 286 286 284 284 283 283 284 285 286 288 289 289 290 290 291 291 290 289 289 288 287 286
272 273 275 275 273 273 273 275 275 276 277 277 279 281 283 285 287 285 285 286 286 286 287 287 288 287 289 290 291 292 292 292 292 292 291 290 289 288
275 274 275 277 277 276 275 276 277 277 278 279 279 280 281 282 283 284 284 285 286 286 287 288 289 290 291 292 293 293 292 293 294 294 293 292 290 289
277 277 277 277 278 279 278 278 278 278 280 281 280 280 281 282 284 284 285 286 287 288 289 290 292 292 293 293 293 293 293 293 294 294 293 293 292 292
280 279 280 279 280 281 280 280 281 281 282 281 283 283 283 284 285 285 286 288 290 291 292 293 293 293 294 294 294 295 296 295 295 295 295 295 295 294
281 282 284 283 283 283 283 282 283 283 283 283 283 284 285 286 285 285 287 289 290 291 292 292 293 294 294 294 295 297 297 298 298 298 297 297 297 297
285 286 286 285 284 284 286 287 288 288 287 286 287 286 286 287 286 286 287 289 291 291 293 294 294 296 296 296 297 297 298 299 299 299 299 299 298 297
286 287 288 288 286 287 289 289 290 290 289 288 290 288 285 286 287 288 291 292 292 293 295 296 296 297 298 297 298 298 299 300 301 301 300 300 299 299
287 289 290 289 288 290 292 292 291 292 291 292 291 289 289 290 291 293 294 294 294 295 296 296 297 298 298 299 299 300 300 301 301 302 302 302 302 302
286 288 289 288 287 289 291 292 292 293 293 294 294 292 291 292 293 294 295 295 296 297 298 298 298 299 299 300 300 301 301 302 303 303 304 304 304 304
288 289 289 289 289 290 291 292 293 293 294 296 296 295 293 294 295 295 296 297 298 299 300 300 300 301 301 300 301 302 303 303 304 304 305 305 305 305
288 289 291 291 291 291 292 294 295 294 296 298 297 296 295 295 296 296 298 299 300 300 301 301 301 301 302 302 302 303 304 304 304 305 305 306 307 307
290 291 293 292 292 293 294 294 294 296 298 298 297 297 298 299 299 299 300 301 301 302 301 301 302 302 303 304 304 304 305 305 306 306 307 309 310 310
291 292 293 293 293 293 293 293 294 296 297 297 299 300 300 300 300 300 301 302 302 302 302 302 302 303 304 305 306 306 307 307 308 309 310 311 312 313
290 292 293 293 293 293 294 295 296 297 298 299 300 301 301 301 302 302 303 303 303 303 303 304 305 305 306 306 307 308 309 310 311 312 312 313 315 316
290 292 294 293 292 292 293 294 296 297 299 301 302 302 302 302 303 303 304 304 303 303 304 305 306 307 307 308 309 310 311 311 313 314 315 316 317 318
289 291 292 292 292 292 293 295 296 297 299 301 302 302 302 303 304 304 304 304 304 304 305 306 306 307 308 309 310 311 312 313 314 316 318 319 320 320
288 289 290 291 292 293 293 294 295 297 298 300 302 303 303 303 304 304 304 304 304 305 305 306 307 308 309 310 311 312 314 315 317 318 319 320 322 323
289 290 291 293 293 293 293 294 295 296 297 299 301 302 302 303 304 304 304 304 304 304 304 305 306 307 309 310 312 313 315 317 318 319 320 321 323 325
289 289 290 292 294 295 296 296 297 297 298 300 301 301 301 302 303 304 303 304 303 303 304 305 306 307 308 309 310 312 315 317 319 320 321 322 324 325